Date String (YYYY-MM-DD hh:mm:ss) UTC,Instrument flags,absolute air pressure of the measurement (hPa),sample flow rate (lpm),inlet stack bypass flow (lpm),air temperature of the measurement (°C),ambient temperature measured by the external sensor (°C),aerosol sample conditioner tube jacket temperature (°C),OPC LED temperature (°C),internal box temperature (°C),relative humidity of the measurement (%),span deviation,mass concentration of particles derived from Lorenz-Mie calculation of OPC scattering (μg/m³),mass concentration of particles derived from Lorenz-Mie calculation of OPC scattering (μg/m³),mass concentration of particles derived from Lorenz-Mie calculation of OPC scattering (μg/m³)
DateTimeUTC,F1_M11,P_M11,Q1_M11,Q2_M11,T1_M11,T2_M11,T3_M11,T4_M11,T5_M11,U1_M11,ZSPAN_M11,X2_M11,X0_M11,X1_M11
2024-01-02 15:00:00,SystemResetWarning,0833.4,5.01,000.00,020.4,019.2,000.0,028.8,021.7,14.8,0000.0,0003.66,0007.86,0003.31
2024-01-02 15:01:00,SystemResetWarning,0833.4,5.01,000.00,020.4,019.2,000.0,028.8,021.8,14.8,0000.0,0003.64,0007.82,0003.31
2024-01-02 15:02:00,SystemResetWarning,0833.4,5.00,000.00,020.4,019.2,000.0,028.8,021.8,14.6,0000.0,0003.64,0007.72,0003.32
2024-01-02 15:03:00,SystemResetWarning,0833.4,4.99,000.00,020.4,019.2,000.0,028.8,021.8,14.4,0000.0,0003.63,0006.96,0003.33
2024-01-02 15:04:00,SystemResetWarning,0833.4,5.00,000.00,020.4,019.2,000.0,028.8,021.8,14.4,0000.0,0003.65,0006.96,0003.33
2024-01-02 15:05:00,SystemResetWarning,0833.4,5.00,000.00,020.4,019.2,000.0,028.8,021.8,14.4,0000.0,0003.67,0006.47,0003.33
2024-01-02 15:06:00,SystemResetWarning,0833.4,5.00,000.00,020.4,019.2,000.0,028.8,021.8,14.4,0000.0,0003.66,0007.22,0003.34
2024-01-02 15:07:00,SystemResetWarning,0833.4,5.00,000.00,020.4,019.2,000.0,028.8,021.8,14.5,0000.0,0003.66,0007.69,0003.34
2024-01-02 15:08:00,SystemResetWarning,0833.4,5.00,000.00,020.4,019.2,000.0,028.8,021.8,14.5,0000.0,0003.68,0007.91,0003.34
2024-01-02 15:09:00,SystemResetWarning,0833.4,5.00,000.00,020.4,019.2,000.0,028.8,021.8,14.5,0000.0,0003.66,0007.87,0003.34
2024-01-02 15:10:00,SystemResetWarning,0833.4,5.00,000.00,020.4,019.2,000.0,028.8,021.8,14.4,0000.0,0003.67,0007.90,0003.35
2024-01-02 15:11:00,SystemResetWarning,0833.4,5.00,000.00,020.4,019.2,000.0,028.8,021.8,14.3,0000.0,0003.65,0007.85,0003.33
2024-01-02 15:12:00,SystemResetWarning,0833.4,5.00,000.00,020.4,019.2,000.0,028.8,021.8,14.3,0000.0,0003.65,0008.00,0003.32
2024-01-02 15:13:00,SystemResetWarning,0833.4,5.01,000.00,020.4,019.3,000.0,028.8,021.8,14.4,0000.0,0003.63,0007.96,0003.31
2024-01-02 15:14:00,SystemResetWarning,0833.4,5.00,000.00,020.4,019.3,000.0,028.7,021.8,14.4,0000.0,0003.60,0007.92,0003.29
2024-01-02 15:15:00,SystemResetWarning,0833.4,5.00,000.00,020.4,019.3,000.0,028.7,021.8,14.5,0000.0,0003.59,0007.84,0003.27
2024-01-02 15:16:00,SystemResetWarning,0833.4,5.00,000.00,020.4,019.3,000.0,028.7,021.8,14.6,0000.0,0003.56,0007.59,0003.26
2024-01-02 15:17:00,SystemResetWarning,0833.4,4.99,000.00,020.4,019.3,000.0,028.7,021.8,14.6,0000.0,0003.54,0006.59,0003.24
2024-01-02 15:18:00,SystemResetWarning,0833.4,4.99,000.00,020.4,019.3,000.0,028.7,021.8,14.5,0000.0,0003.52,0005.82,0003.23
2024-01-02 15:19:00,SystemResetWarning,0833.4,4.99,000.00,020.4,019.4,000.0,028.7,021.8,14.5,0000.0,0003.50,0005.36,0003.22
2024-01-02 15:20:00,SystemResetWarning,0833.4,5.00,000.00,020.4,019.4,000.0,028.7,021.9,14.5,0000.0,0003.49,0005.31,0003.21
2024-01-02 15:21:00,SystemResetWarning,0833.4,5.01,000.00,020.4,019.4,000.0,028.7,021.9,14.8,0000.0,0003.47,0005.40,0003.19
2024-01-02 15:22:00,SystemResetWarning,0833.4,5.01,000.00,020.4,019.4,000.0,028.7,021.9,15.1,0000.0,0003.44,0005.67,0003.18
2024-01-02 15:23:00,SystemResetWarning,0833.4,4.99,000.00,020.4,019.5,000.0,028.8,021.9,14.5,0000.0,0003.42,0005.34,0003.18
2024-01-02 15:24:00,SystemResetWarning,0833.5,4.98,000.00,020.4,019.5,000.0,028.8,021.9,14.2,0000.0,0003.43,0005.38,0003.18
2024-01-02 15:25:00,SystemResetWarning,0833.5,5.00,000.00,020.5,019.5,000.0,028.8,021.9,14.2,0000.0,0003.44,0005.54,0003.18
2024-01-02 15:26:00,SystemResetWarning,0833.4,5.00,000.00,020.5,019.5,000.0,028.8,021.9,14.5,0000.0,0003.47,0005.60,0003.18
2024-01-02 15:27:00,SystemResetWarning,0833.4,5.01,000.00,020.5,019.5,000.0,028.8,021.9,15.4,0000.0,0003.48,0005.78,0003.19
2024-01-02 15:28:00,SystemResetWarning,0833.4,5.00,000.00,020.5,019.5,000.0,028.8,021.9,16.0,0000.0,0003.50,0006.28,0003.20
2024-01-02 15:29:00,SystemResetWarning,0833.4,5.00,000.00,020.5,019.6,000.0,028.8,021.9,15.0,0000.0,0003.51,0006.70,0003.19
2024-01-02 15:30:00,SystemResetWarning,0833.4,5.00,000.00,020.5,019.6,000.0,028.8,021.9,14.2,0000.0,0003.47,0006.54,0003.19
2024-01-02 15:31:00,SystemResetWarning,0833.4,5.00,000.00,020.5,019.6,000.0,028.8,021.9,14.2,0000.0,0003.48,0006.72,0003.17
2024-01-02 15:32:00,SystemResetWarning,0833.4,5.00,000.00,020.5,019.6,000.0,028.8,022.0,14.0,0000.0,0003.50,0007.02,0003.17
2024-01-02 15:33:00,SystemResetWarning,0833.4,5.00,000.00,020.5,019.6,000.0,028.8,022.0,14.1,0000.0,0003.50,0007.39,0003.17
2024-01-02 15:34:00,SystemResetWarning,0833.4,5.00,000.00,020.5,019.7,000.0,028.8,022.0,14.7,0000.0,0003.49,0007.33,0003.16
2024-01-02 15:35:00,SystemResetWarning,0833.4,5.00,000.00,020.5,019.7,000.0,028.8,022.0,14.4,0000.0,0003.48,0007.34,0003.15
2024-01-02 15:36:00,SystemResetWarning,0833.4,5.00,000.00,020.5,019.7,000.0,028.8,022.0,14.4,0000.0,0003.45,0007.22,0003.13
2024-01-02 15:37:00,SystemResetWarning,0833.4,5.00,000.00,020.5,019.7,000.0,028.8,022.0,15.0,0000.0,0003.40,0007.06,0003.12
2024-01-02 15:38:00,SystemResetWarning,0833.4,5.00,000.00,020.6,019.8,000.0,028.8,022.0,15.4,0000.0,0003.35,0006.84,0003.10
2024-01-02 15:39:00,SystemResetWarning,0833.4,5.00,000.00,020.6,019.8,000.0,028.8,022.1,16.1,0000.0,0003.33,0006.26,0003.07
2024-01-02 15:40:00,SystemResetWarning,0833.4,5.00,000.00,020.6,019.8,000.0,028.8,022.1,16.0,0000.0,0003.29,0005.74,0003.05
2024-01-02 15:41:00,SystemResetWarning,0833.4,5.00,000.00,020.6,019.8,000.0,028.8,022.1,15.8,0000.0,0003.27,0005.65,0003.03
2024-01-02 15:42:00,SystemResetWarning,0833.4,5.00,000.00,020.6,019.9,000.0,028.9,022.1,15.7,0000.0,0003.25,0005.52,0003.03
2024-01-02 15:43:00,SystemResetWarning,0833.3,5.00,000.00,020.6,019.9,000.0,028.9,022.1,15.7,0000.0,0003.21,0005.15,0003.02
2024-01-02 15:44:00,SystemResetWarning,0833.4,5.00,000.00,020.6,019.9,000.0,028.9,022.1,15.5,0000.0,0003.19,0004.03,0003.00
2024-01-02 15:45:00,SystemResetWarning,0833.4,5.00,000.00,020.6,019.9,000.0,028.9,022.1,15.5,0000.0,0003.20,0004.09,0003.01
2024-01-02 15:46:00,SystemResetWarning,0833.4,5.00,000.00,020.6,019.9,000.0,028.9,022.1,15.4,0000.0,0003.18,0003.96,0003.01
2024-01-02 15:47:00,SystemResetWarning,0833.4,5.00,000.00,020.7,019.9,000.0,028.9,022.2,15.4,0000.0,0003.18,0004.12,0003.01
2024-01-02 15:48:00,SystemResetWarning,0833.4,5.00,000.00,020.7,019.9,000.0,028.9,022.1,15.4,0000.0,0003.19,0005.11,0003.03
2024-01-02 15:49:00,SystemResetWarning,0833.4,5.01,000.00,020.7,020.0,000.0,028.9,022.1,15.4,0000.0,0003.21,0005.30,0003.02
2024-01-02 15:50:00,SystemResetWarning,0833.4,5.01,000.00,020.7,020.0,000.0,028.9,022.2,15.4,0000.0,0003.22,0005.37,0003.03
2024-01-02 15:51:00,SystemResetWarning,0833.4,5.01,000.00,020.7,020.0,000.0,028.9,022.2,15.4,0000.0,0003.25,0005.46,0003.05
2024-01-02 15:52:00,SystemResetWarning,0833.3,5.00,000.00,020.7,020.0,000.0,029.0,022.2,15.3,0000.0,0003.30,0005.61,0003.10
2024-01-02 15:53:00,SystemResetWarning,0833.3,5.00,000.00,020.7,020.0,000.0,029.0,022.2,15.4,0000.0,0003.32,0005.96,0003.12
2024-01-02 15:54:00,SystemResetWarning,0833.4,5.00,000.00,020.7,020.0,000.0,029.0,022.2,15.4,0000.0,0003.39,0006.28,0003.14
2024-01-02 15:55:00,SystemResetWarning,0833.4,5.01,000.00,020.7,020.0,000.0,029.0,022.2,15.5,0000.0,0003.47,0006.56,0003.18
2024-01-02 15:56:00,SystemResetWarning,0833.4,5.01,000.00,020.8,020.1,000.0,029.0,022.2,15.5,0000.0,0003.51,0006.72,0003.20
2024-01-02 15:57:00,SystemResetWarning,0833.4,5.00,000.00,020.8,020.1,000.0,029.0,022.2,15.7,0000.0,0003.55,0007.28,0003.24
2024-01-02 15:58:00,SystemResetWarning,0833.4,4.99,000.00,020.8,020.1,000.0,029.0,022.3,15.4,0000.0,0003.59,0007.31,0003.27
2024-01-02 15:59:00,SystemResetWarning,0833.4,4.99,000.00,020.8,020.1,000.0,029.0,022.3,15.4,0000.0,0003.65,0006.64,0003.30
